sat.trackr.live / text

‹ back to catalog

2022-023D

NORAD 51949 · 2022-023D

PAYLOAD ACTIVE UNKNOWN

§ Identity

Operator
Country
PRC
Launch date
2022-03-05
Launch site
XICLF
Launch vehicle
Mass (kg)
RCS (m²)

External: N2YO · Heavens-Above · Gunter

§ Orbital elements

Epoch: 2026-05-25T03:09:39.845952Z

Period
94.86 min
Inclination
63.4578°
Eccentricity
0.0122147
Mean motion
15.17958921 rev/d
Perigee alt
427.8 km
Apogee alt
596.2 km
Semi-major
6,890.1 km
B*
7.7638e-4
RAAN
350.0923°
Arg perigee
355.9833°
Mean anomaly
4.0286°
Rev number
23,421

§ Raw data

2022-023D1 51949U 22023D   26145.13171118  .00019088  00000+0  77638-3 0  99972 51949  63.4578 350.0923 0122147 355.9833   4.0286 15.17958921234218

JSON: /api/v1/satellites/51949 · /tle

For live sub-satellite position, see the globe view (requires WebGL).

§ Visibility from observer

Set your observer location to see the next 7 days of passes ≥ 10°. The values pass through the URL so the page stays shareable.

No JS? Fill the form by hand. The geolocation button needs JavaScript.